EA4BPO Weather Reports


Display with metric or nautical units.
time (UTC)temp
F
wind
direction
speed
MPH
gust
MPH
rain 1hr
in
rain 24hr
in
rain mn
in
humidity
%
barometer
mb
20260507090005 57 67 3.0 10.0 0.00 0.00 0.00 72 1011.1
20260507085504 56 61 4.0 10.0 0.00 0.00 0.00 72 1010.7
20260507085004 56 52 4.0 8.0 0.00 0.00 0.00 73 1011.0
20260507084504 57 48 3.0 8.0 0.00 0.00 0.00 72 1011.1
20260507084004 57 46 3.0 9.0 0.00 0.00 0.00 71 1010.8
20260507083504 56 52 4.0 9.0 0.00 0.00 0.00 73 1010.8
20260507083004 56 56 3.0 7.0 0.00 0.00 0.00 72 1011.0
20260507082504 56 62 3.0 7.0 0.00 0.00 0.00 72 1010.8
20260507082004 55 64 3.0 8.0 0.00 0.00 0.00 74 1011.0
20260507081525 54 62 3.0 8.0 0.00 0.00 0.00 75 1011.2
20260507081004 54 57 3.0 7.0 0.00 0.00 0.00 75 1011.1
20260507080525 53 56 3.0 7.0 0.00 0.00 0.00 76 1011.1
20260507080004 53 52 3.0 7.0 0.00 0.00 0.00 77 1011.1
20260507075525 54 45 2.0 7.0 0.00 0.00 0.00 76 1011.4
20260507075025 53 44 2.0 9.0 0.00 0.00 0.00 77 1010.8
20260507074525 53 37 3.0 10.0 0.00 0.00 0.00 77 1010.7
20260507074025 53 35 4.0 10.0 0.00 0.00 0.00 77 1011.0
20260507073504 53 40 4.0 9.0 0.00 0.00 0.00 77 1010.6
20260507073004 53 39 3.0 8.0 0.00 0.00 0.00 76 1010.7
20260507072504 53 32 4.0 8.0 0.00 0.00 0.00 76 1010.7
20260507072004 53 35 4.0 10.0 0.00 0.00 0.00 77 1010.7
20260507071504 53 55 4.0 10.0 0.00 0.00 0.00 77 1010.8
20260507071025 53 62 4.0 8.0 0.00 0.00 0.00 77 1010.7
20260507070504 53 60 4.0 8.0 0.00 0.00 0.00 77 1011.1
20260507070025 53 52 3.0 8.0 0.00 0.00 0.00 77 1011.0
20260507065504 53 48 3.0 8.0 0.00 0.00 0.00 77 1010.7
20260507065025 53 58 4.0 8.0 0.00 0.00 0.00 77 1010.7
20260507064525 53 55 3.0 8.0 0.00 0.00 0.00 77 1010.8
20260507064004 53 50 2.0 7.0 0.00 0.00 0.00 77 1010.6
20260507063504 53 51 3.0 7.0 0.00 0.00 0.00 77 1010.5
20260507063004 53 44 3.0 8.0 0.00 0.00 0.00 78 1010.4
20260507062504 52 37 3.0 8.0 0.00 0.00 0.00 78 1010.3
20260507062025 52 40 3.0 8.0 0.00 0.00 0.00 78 1010.4
20260507061504 52 39 3.0 7.0 0.00 0.00 0.00 78 1010.3
20260507061004 53 45 3.0 7.0 0.00 0.00 0.00 78 1010.6
20260507060504 52 48 3.0 9.0 0.00 0.00 0.00 78 1010.3
20260507060025 52 38 4.0 9.0 0.00 0.00 0.00 78 1010.2
20260507055504 52 28 4.0 7.0 0.00 0.00 0.00 79 1010.4
20260507055004 52 27 4.0 7.0 0.00 0.00 0.00 79 1010.4
20260507054504 52 24 4.0 7.0 0.00 0.00 0.00 79 1010.1
20260507054004 52 22 4.0 8.0 0.00 0.00 0.00 79 1010.0
20260507053525 52 27 4.0 8.0 0.00 0.00 0.00 79 1009.9
20260507053005 52 25 4.0 8.0 0.00 0.00 0.00 79 1009.9
20260507052504 52 23 4.0 7.0 0.00 0.00 0.00 79 1009.9
20260507052025 52 23 4.0 8.0 0.00 0.00 0.00 79 1009.8
20260507051504 51 21 4.0 8.0 0.00 0.00 0.00 79 1010.1
20260507051004 51 22 4.0 7.0 0.00 0.00 0.00 79 1010.0
20260507050504 51 22 4.0 7.0 0.00 0.00 0.00 79 1010.1
20260507050005 51 19 4.0 7.0 0.00 0.00 0.00 79 1009.9
20260507045504 51 17 3.0 6.0 0.00 0.00 0.00 79 1009.9
20260507045004 51 19 3.0 6.0 0.00 0.00 0.00 79 1010.1
20260507044525 51 18 3.0 6.0 0.00 0.00 0.00 79 1009.9
20260507044004 51 19 3.0 7.0 0.00 0.00 0.00 79 1010.0
20260507043504 51 25 3.0 7.0 0.00 0.00 0.00 79 1010.0
20260507043004 51 29 3.0 7.0 0.00 0.00 0.00 79 1009.9
20260507042504 51 25 3.0 7.0 0.00 0.00 0.00 79 1010.0
20260507042004 51 23 4.0 8.0 0.00 0.00 0.00 78 1010.0
20260507041504 51 21 4.0 8.0 0.00 0.00 0.00 78 1010.1
20260507041004 51 23 4.0 9.0 0.00 0.00 0.00 78 1010.0
20260507040504 51 27 4.0 9.0 0.00 0.00 0.00 78 1009.8
20260507040025 51 28 4.0 8.0 0.00 0.00 0.00 78 1009.9
20260507035504 51 30 4.0 8.0 0.00 0.00 0.00 78 1010.0
20260507035004 51 27 4.0 7.0 0.00 0.00 0.00 77 1010.1
20260507034525 51 27 3.0 7.0 0.00 0.00 0.00 77 1009.9
20260507034004 51 25 3.0 7.0 0.00 0.00 0.00 77 1010.3
20260507033504 51 22 4.0 7.0 0.00 0.00 0.00 76 1010.1
20260507033025 51 24 3.0 7.0 0.00 0.00 0.00 76 1010.0
20260507032504 51 25 3.0 7.0 0.00 0.00 0.00 76 1010.0
20260507032004 52 19 3.0 7.0 0.00 0.00 0.00 75 1009.9
20260507031504 52 16 3.0 7.0 0.00 0.00 0.00 75 1010.1
20260507031004 52 13 3.0 8.0 0.00 0.00 0.00 74 1010.1
20260507030504 52 7 3.0 8.0 0.00 0.00 0.00 74 1010.0
20260507030004 52 9 3.0 7.0 0.00 0.00 0.00 74 1010.0
20260507025525 52 22 3.0 7.0 0.00 0.00 0.00 73 1009.9
20260507025025 53 27 3.0 8.0 0.00 0.00 0.00 73 1009.9
20260507024504 53 26 4.0 8.0 0.00 0.00 0.00 73 1010.0
20260507024004 53 25 4.0 7.0 0.00 0.00 0.00 72 1010.0
20260507023504 53 21 3.0 7.0 0.00 0.00 0.00 72 1009.8
20260507023004 53 28 3.0 6.0 0.00 0.00 0.00 72 1010.0
20260507022504 53 36 3.0 6.0 0.00 0.00 0.00 72 1010.0
20260507022004 53 35 2.0 6.0 0.00 0.00 0.00 71 1010.1
20260507021504 53 36 2.0 6.0 0.00 0.00 0.00 71 1010.1
20260507021004 53 35 2.0 6.0 0.00 0.00 0.00 70 1009.8
20260507020504 53 33 2.0 6.0 0.00 0.00 0.00 69 1009.9
20260507020004 53 38 3.0 6.0 0.00 0.00 0.00 69 1009.9
20260507015504 53 48 3.0 7.0 0.00 0.00 0.00 69 1009.9
20260507015004 54 51 3.0 7.0 0.00 0.00 0.00 69 1009.9
20260507014504 54 48 3.0 7.0 0.00 0.00 0.00 69 1009.9
20260507014004 54 52 3.0 6.0 0.00 0.00 0.00 68 1009.9
20260507013525 53 49 4.0 8.0 0.00 0.00 0.00 68 1009.8
20260507013004 53 46 4.0 8.0 0.00 0.00 0.00 67 1009.9
20260507012504 53 46 3.0 7.0 0.00 0.00 0.00 66 1010.0
20260507012004 53 47 3.0 7.0 0.00 0.00 0.00 66 1009.9
20260507010504 53 48 4.0 8.0 0.00 0.00 0.00 65 1009.9
20260507010025 53 44 4.0 9.0 0.00 0.00 0.00 65 1009.9
20260507005525 53 45 5.0 9.0 0.00 0.00 0.00 65 1010.2
20260507005004 53 49 4.0 7.0 0.00 0.00 0.00 65 1010.1
20260507004504 53 44 4.0 8.0 0.00 0.00 0.00 65 1010.2
20260507004004 53 44 4.0 9.0 0.00 0.00 0.00 65 1010.1
20260507003504 53 54 4.0 9.0 0.00 0.00 0.00 64 1010.2
20260507003004 53 59 4.0 9.0 0.00 0.00 0.00 64 1010.3
20260507002504 53 55 4.0 8.0 0.00 0.00 0.00 63 1010.2
20260507002004 54 50 5.0 11.0 0.00 0.00 0.00 62 1010.2
20260507001525 54 51 5.0 11.0 0.00 0.00 0.00 61 1010.2
20260507001004 54 58 5.0 11.0 0.00 0.00 0.00 60 1010.2
20260507000505 54 56 5.0 11.0 0.00 0.00 0.00 60 1010.6
20260507000004 54 44 4.0 9.0 0.00 0.00 0.00 59 1010.0
20260506235504 54 39 4.0 8.0 0.00 0.00 0.00 58 1010.1
20260506235004 55 35 4.0 8.0 0.00 0.00 0.00 58 1009.8
20260506234504 55 29 4.0 8.0 0.00 0.00 0.00 57 1009.9
20260506234004 55 30 4.0 8.0 0.00 0.00 0.00 57 1010.0
20260506233504 55 33 4.0 8.0 0.00 0.00 0.00 56 1010.0
20260506233004 56 36 4.0 9.0 0.00 0.00 0.00 55 1009.9
20260506232504 56 34 5.0 9.0 0.00 0.00 0.00 55 1009.9
20260506232004 56 27 5.0 8.0 0.00 0.00 0.00 54 1009.7
20260506231525 56 27 4.0 8.0 0.00 0.00 0.00 53 1009.7
20260506231004 56 28 4.0 8.0 0.00 0.00 0.00 53 1009.7
20260506230504 57 30 4.0 7.0 0.00 0.00 0.00 52 1009.8
20260506230004 57 31 4.0 8.0 0.00 0.00 0.00 50 1009.8
20260506225504 57 32 4.0 8.0 0.00 0.00 0.00 49 1009.7
20260506225004 58 38 3.0 8.0 0.00 0.00 0.00 47 1009.8
20260506224504 58 37 3.0 6.0 0.00 0.00 0.00 46 1009.9
20260506224004 58 44 3.0 6.0 0.00 0.00 0.00 46 1009.8
20260506223504 58 49 3.0 6.0 0.00 0.00 0.00 46 1009.6
20260506223004 58 49 3.0 6.0 0.00 0.00 0.00 44 1009.8
20260506222525 59 53 3.0 6.0 0.00 0.00 0.00 42 1009.8
20260506222025 59 50 3.0 6.0 0.00 0.00 0.00 42 1009.8
20260506221504 59 47 3.0 7.0 0.00 0.00 0.00 42 1009.8
20260506221004 59 47 2.0 4.0 0.00 0.00 0.00 42 1009.6
20260506220504 59 48 2.0 4.0 0.00 0.00 0.00 42 1009.6
20260506220004 59 50 2.0 4.0 0.00 0.00 0.00 41 1009.9
20260506215504 59 54 3.0 4.0 0.00 0.00 0.00 41 1010.0
20260506215004 59 51 2.0 4.0 0.00 0.00 0.00 41 1009.7
20260506214504 59 49 2.0 4.0 0.00 0.00 0.00 40 1010.1
20260506214004 60 48 1.0 3.0 0.00 0.00 0.00 41 1009.7
20260506213504 60 44 1.0 3.0 0.00 0.00 0.00 41 1009.7
20260506213004 60 48 1.0 2.0 0.00 0.00 0.00 41 1009.8
20260506212525 60 47 1.0 2.0 0.00 0.00 0.00 40 1009.8
20260506212004 60 41 1.0 3.0 0.00 0.00 0.00 40 1009.8
20260506211504 60 43 2.0 3.0 0.00 0.00 0.00 39 1009.8
20260506211004 61 53 2.0 3.0 0.00 0.00 0.00 38 1009.9
20260506210505 61 59 2.0 3.0 0.00 0.00 0.00 38 1009.8
20260506210004 62 60 1.0 2.0 0.00 0.00 0.00 37 1010.0
20260506205525 62 60 1.0 2.0 0.00 0.00 0.00 37 1009.8
20260506205004 62 67 1.0 2.0 0.00 0.00 0.00 37 1009.6
20260506204504 62 71 1.0 2.0 0.00 0.00 0.00 36 1009.7
20260506204004 62 70 1.0 2.0 0.00 0.00 0.00 37 1009.9
20260506203504 62 73 1.0 2.0 0.00 0.00 0.00 37 1009.8
20260506203004 62 77 1.0 2.0 0.00 0.00 0.00 37 1009.6
20260506202504 62 78 1.0 2.0 0.00 0.00 0.00 38 1009.7
20260506202004 62 81 1.0 1.0 0.00 0.00 0.00 38 1009.7
20260506201504 62 76 1.0 2.0 0.00 0.00 0.00 39 1009.7
20260506201025 62 72 1.0 2.0 0.00 0.00 0.00 38 1009.6
20260506200504 62 71 1.0 2.0 0.00 0.00 0.00 37 1009.5
20260506200004 63 72 1.0 2.0 0.00 0.00 0.00 37 1009.5
20260506195525 63 75 1.0 1.0 0.00 0.00 0.00 36 1009.7
20260506195004 63 76 1.0 2.0 0.00 0.00 0.00 37 1009.8
20260506194504 63 76 1.0 2.0 0.00 0.00 0.00 35 1009.7
20260506194004 63 86 0.0 2.0 0.00 0.00 0.00 35 1009.5
20260506193525 63 88 1.0 2.0 0.00 0.00 0.00 35 1009.5
20260506193025 63 81 1.0 2.0 0.00 0.00 0.00 34 1009.4
20260506192504 63 75 1.0 2.0 0.00 0.00 0.00 35 1009.2
20260506192004 63 89 0.0 1.0 0.00 0.00 0.00 35 1009.2
20260506191525 64 89 0.0 1.0 0.00 0.00 0.00 35 1009.6
20260506191004 64 94 0.0 1.0 0.00 0.00 0.00 35 1009.5
20260506190504 64 127 0.0 1.0 0.00 0.00 0.00 34 1009.2
20260506190025 64 142 0.0 1.0 0.00 0.00 0.00 34 1009.1
20260506185504 65 172 0.0 2.0 0.00 0.00 0.00 33 1009.4
20260506185004 66 218 1.0 2.0 0.00 0.00 0.00 33 1009.1
20260506184525 66 312 0.0 2.0 0.00 0.00 0.00 31 1009.4
20260506184004 67 236 0.0 3.0 0.00 0.00 0.00 31 1009.1
20260506183504 66 210 1.0 3.0 0.00 0.00 0.00 32 1009.2
20260506183005 66 183 1.0 3.0 0.00 0.00 0.00 32 1009.1
20260506182504 67 196 1.0 2.0 0.00 0.00 0.00 31 1009.2
20260506182004 67 180 1.0 2.0 0.00 0.00 0.00 31 1009.0
20260506181504 66 95 1.0 2.0 0.00 0.00 0.00 31 1009.4
20260506181004 66 11 1.0 4.0 0.00 0.00 0.00 32 1009.2
20260506180504 65 329 2.0 4.0 0.00 0.00 0.00 32 1009.1
20260506180005 66 335 1.0 4.0 0.00 0.00 0.00 32 1009.5
20260506175504 67 356 1.0 3.0 0.00 0.00 0.00 32 1009.2
20260506175004 67 329 1.0 3.0 0.00 0.00 0.00 31 1009.4
20260506174504 67 324 1.0 3.0 0.00 0.00 0.00 31 1009.5
20260506174004 67 293 1.0 3.0 0.00 0.00 0.00 31 1009.4
20260506173504 68 233 1.0 3.0 0.00 0.00 0.00 31 1009.4
20260506173004 68 218 1.0 3.0 0.00 0.00 0.00 30 1009.4
20260506172504 67 133 1.0 4.0 0.00 0.00 0.00 30 1009.4
20260506172004 66 101 2.0 6.0 0.00 0.00 0.00 33 1009.2
20260506171504 65 94 3.0 6.0 0.00 0.00 0.00 32 1009.5
20260506171004 66 94 2.0 4.0 0.00 0.00 0.00 32 1009.5
20260506170504 67 112 1.0 4.0 0.00 0.00 0.00 32 1009.6
20260506170004 69 139 1.0 2.0 0.00 0.00 0.00 31 1009.4
20260506165504 68 152 1.0 3.0 0.00 0.00 0.00 32 1009.5
20260506165004 67 165 1.0 3.0 0.00 0.00 0.00 31 1009.4
20260506164504 69 193 1.0 3.0 0.00 0.00 0.00 30 1009.7
20260506164004 67 13 1.0 3.0 0.00 0.00 0.00 31 1009.7
20260506163504 64 40 1.0 4.0 0.00 0.00 0.00 33 1010.0
20260506163004 64 75 2.0 4.0 0.00 0.00 0.00 34 1009.6
20260506162504 64 69 2.0 4.0 0.00 0.00 0.00 34 1009.8
20260506162004 65 55 2.0 6.0 0.00 0.00 0.00 34 1009.8
20260506161504 64 95 2.0 6.0 0.00 0.00 0.00 33 1009.8
20260506161025 65 158 1.0 4.0 0.00 0.00 0.00 34 1009.8
20260506160504 65 153 2.0 3.0 0.00 0.00 0.00 34 1009.8
20260506160004 65 80 3.0 7.0 0.00 0.00 0.00 33 1009.6
20260506155525 64 64 3.0 7.0 0.00 0.00 0.00 34 1009.9
20260506155004 67 27 2.0 6.0 0.00 0.00 0.00 33 1009.9
20260506154504 66 36 2.0 4.0 0.00 0.00 0.00 33 1009.8
20260506154004 67 308 1.0 4.0 0.00 0.00 0.00 33 1010.0
20260506153525 66 306 3.0 8.0 0.00 0.00 0.00 34 1009.9
20260506153004 64 332 3.0 8.0 0.00 0.00 0.00 34 1010.1
20260506152504 66 166 2.0 4.0 0.00 0.00 0.00 33 1010.0
20260506152004 65 253 2.0 4.0 0.00 0.00 0.00 34 1010.1
20260506151525 65 309 2.0 6.0 0.00 0.00 0.00 34 1010.1
20260506151004 64 343 3.0 8.0 0.00 0.00 0.00 35 1010.0
20260506150504 64 19 3.0 8.0 0.00 0.00 0.00 35 1010.1
20260506150004 65 51 2.0 8.0 0.00 0.00 0.00 35 1010.3
20260506145504 64 28 2.0 6.0 0.00 0.00 0.00 36 1010.3
20260506145004 64 43 2.0 6.0 0.00 0.00 0.00 37 1010.2
20260506144504 64 75 2.0 6.0 0.00 0.00 0.00 36 1010.5
20260506144004 65 162 2.0 8.0 0.00 0.00 0.00 35 1010.5
20260506143504 64 158 3.0 8.0 0.00 0.00 0.00 36 1010.5
20260506143004 65 147 4.0 10.0 0.00 0.00 0.00 36 1010.4
20260506142504 65 135 4.0 10.0 0.00 0.00 0.00 36 1010.5
20260506142004 65 48 3.0 7.0 0.00 0.00 0.00 36 1010.7
20260506141504 66 85 2.0 7.0 0.00 0.00 0.00 36 1010.7
20260506141004 66 126 3.0 7.0 0.00 0.00 0.00 35 1010.7
20260506140525 65 112 4.0 8.0 0.00 0.00 0.00 38 1010.8
20260506140004 64 88 4.0 8.0 0.00 0.00 0.00 37 1010.7
20260506135504 64 83 4.0 9.0 0.00 0.00 0.00 37 1011.2
20260506135004 64 85 3.0 9.0 0.00 0.00 0.00 38 1011.0
20260506134504 67 217 1.0 4.0 0.00 0.00 0.00 35 1011.1
20260506134004 64 305 2.0 6.0 0.00 0.00 0.00 36 1011.1
20260506133504 63 343 3.0 6.0 0.00 0.00 0.00 37 1011.1
20260506133025 64 352 3.0 6.0 0.00 0.00 0.00 37 1011.3
20260506132504 65 287 3.0 6.0 0.00 0.00 0.00 36 1011.4
20260506132025 64 278 3.0 6.0 0.00 0.00 0.00 39 1011.4
20260506131504 63 291 3.0 6.0 0.00 0.00 0.00 40 1011.5
20260506131004 63 326 3.0 6.0 0.00 0.00 0.00 40 1011.5
20260506130504 63 330 2.0 4.0 0.00 0.00 0.00 41 1011.5
20260506130025 64 239 2.0 6.0 0.00 0.00 0.00 40 1011.3
20260506125525 64 229 2.0 7.0 0.00 0.00 0.00 40 1011.7
20260506125004 63 240 2.0 7.0 0.00 0.00 0.00 41 1011.6
20260506124504 62 313 3.0 8.0 0.00 0.00 0.00 41 1011.5
20260506124004 61 2 3.0 8.0 0.00 0.00 0.00 43 1011.6
20260506123504 63 308 3.0 8.0 0.00 0.00 0.00 43 1011.7
20260506123004 60 290 3.0 7.0 0.00 0.00 0.00 44 1011.7
20260506122504 62 347 2.0 7.0 0.00 0.00 0.00 43 1011.9
20260506122025 61 345 3.0 7.0 0.00 0.00 0.00 44 1011.9
20260506121504 60 334 3.0 6.0 0.00 0.00 0.00 45 1011.9
20260506121004 60 335 3.0 6.0 0.00 0.00 0.00 45 1012.1
20260506120504 60 21 3.0 6.0 0.00 0.00 0.00 45 1012.0
20260506120004 61 66 3.0 7.0 0.00 0.00 0.00 44 1012.2
20260506115504 62 54 3.0 7.0 0.00 0.00 0.00 44 1012.2
20260506115004 61 27 3.0 8.0 0.00 0.00 0.00 46 1012.2
20260506114504 60 34 3.0 8.0 0.00 0.00 0.00 46 1012.5
20260506114004 61 163 2.0 6.0 0.00 0.00 0.00 45 1012.1
20260506113525 61 170 3.0 8.0 0.00 0.00 0.00 46 1012.1
20260506113004 59 135 3.0 8.0 0.00 0.00 0.00 48 1012.6
20260506112504 58 64 2.0 7.0 0.00 0.00 0.00 48 1012.5
20260506112004 59 66 3.0 7.0 0.00 0.00 0.00 48 1012.3
20260506111504 60 78 3.0 8.0 0.00 0.00 0.00 47 1012.5
20260506111004 58 85 3.0 8.0 0.00 0.00 0.00 48 1012.5
20260506110504 59 129 2.0 8.0 0.00 0.00 0.00 48 1012.7
20260506110025 58 136 2.0 6.0 0.00 0.00 0.00 49 1012.5
20260506105525 58 60 3.0 9.0 0.00 0.00 0.00 50 1012.5
20260506105004 59 101 3.0 9.0 0.00 0.00 0.00 48 1012.5
20260506104504 59 149 3.0 7.0 0.00 0.00 0.00 48 1012.6
20260506104025 59 108 4.0 10.0 0.00 0.00 0.00 49 1012.6
20260506103525 58 78 4.0 10.0 0.00 0.00 0.00 48 1012.7
20260506103004 59 68 3.0 8.0 0.00 0.00 0.00 49 1012.6
20260506102504 59 38 2.0 9.0 0.00 0.00 0.00 49 1012.7
20260506102025 58 38 3.0 9.0 0.00 0.00 0.00 50 1012.6
20260506101504 59 43 2.0 9.0 0.00 0.00 0.00 49 1012.9
20260506101004 58 67 3.0 7.0 0.00 0.00 0.00 52 1012.7
20260506100503 58 87 3.0 7.0 0.00 0.00 0.00 53 1012.7
20260506100004 58 82 3.0 7.0 0.00 0.00 0.00 51 1012.9
20260506095504 56 63 4.0 9.0 0.00 0.00 0.00 54 1013.1
20260506095025 56 59 4.0 9.0 0.00 0.00 0.00 57 1012.9
20260506094504 56 82 4.0 9.0 0.00 0.00 0.00 55 1012.8
20260506094004 56 76 5.0 11.0 0.00 0.00 0.00 56 1012.7
20260506093504 55 62 5.0 11.0 0.00 0.00 0.00 55 1012.9
20260506093004 56 72 5.0 11.0 0.00 0.00 0.00 58 1012.9
20260506092503 55 75 6.0 11.0 0.00 0.00 0.00 58 1012.8
20260506092024 55 76 6.0 11.0 0.00 0.00 0.00 57 1012.9
20260506091524 55 68 5.0 11.0 0.00 0.00 0.00 59 1012.9
20260506091004 55 62 5.0 10.0 0.00 0.00 0.00 60 1012.9
20260506090504 54 59 5.0 10.0 0.00 0.00 0.00 61 1013.0